Hourly Data Report for July 08, 2004

SHERBROOKE A
QUEBEC

45°26'00.000" N
71°41'00.000" W
241.40 m
7028124
71610
YSC

Download Data

Hourly Data (July 2004)
Hourly Data Report for July 8, 2004
TIME
LST
Temp Definition
°C
Dew Point Definition
°C
Rel Hum Definition
%
Precip. Amount Definition
mm

Wind Dir Definition
10's deg

Wind Spd Definition
km/h
Visibility Definition
km
Stn Press Definition
kPa
Hmdx Definition


Wind Chill Definition


Weather Definition


00:00 19.0 14.3 74   12 6 15.0 98.10     Rain
01:00 18.8 15.4 81   16 4 15.0 98.11     Rain
02:00 17.0 15.8 93   9 7 6.4 98.05     Rain
03:00 17.3 15.3 88   14 9 6.4 98.04     Rain
04:00 16.8 15.1 90   11 6 4.0 98.04     Moderate Rain
05:00 16.7 15.1 90   11 7 15.0 98.05     Rain
06:00 16.8 14.9 89   13 9 15.0 98.04     Rain
07:00 17.5 15.7 89     0 19.3 98.07     Rain
08:00 18.6 16.6 88   15 6 19.3 98.05     Mostly Cloudy
09:00 19.8 17.3 86   17 6 19.3 98.09     Cloudy
10:00 19.5 17.6 89   20 4 9.7 98.11     Rain
11:00 20.5 18.5 88   19 7 16.1 98.11 27   Cloudy
12:00 20.6 18.2 86   18 7 16.1 98.11 27   Cloudy
13:00 20.9 18.9 88   17 7 16.1 98.09 28   Cloudy
14:00 22.8 20.1 85   18 11 19.3 98.07 30   Mostly Cloudy
15:00 23.2 18.8 76   16 15 19.3 98.02 30   Mostly Cloudy
16:00 22.6 18.4 77   14 13 19.3 98.02 29   Mostly Cloudy
17:00 21.1 16.1 73   32 6 15.0 98.07 26    
18:00 16.3 15.2 93   28 6 1.3 98.26     Heavy Rain
19:00 16.3 15.3 94   10 6 6.4 98.23     Rain
20:00 16.5 15.6 94   11 11 15.0 98.21      
21:00 16.5 15.6 94   11 6 15.0 98.17      
22:00 15.8 15.0 95   32 4 8.0 98.23      
23:00 15.2 14.5 96   25 4 0.5 98.22      

Notes on Data Quality.

Legend

  • E = Estimated
  • M = Missing
  • NA = Not Available*
  • [empty] = Indicates an unobserved value
Date modified: